| time (UTC) | temp F | wind direction | speed MPH | gust MPH | rain 1hr in | rain 24hr in | rain mn in | humidity % | barometer mb |
| 20260506050931 | 49 | 10 | 5.0 | 5.0 | 0.07 | 0.12 | 0.12 | 95 | 1009.1 |
| 20260506050429 | 49 | 23 | 2.0 | 5.0 | 0.00 | 0.11 | 0.11 | 95 | 1009.2 |
| 20260506044919 | 49 | 19 | 3.0 | 5.0 | 0.12 | 0.10 | 0.10 | 95 | 1009.2 |
| 20260506044418 | 49 | 21 | 3.0 | 4.0 | 0.05 | 0.09 | 0.09 | 95 | 1009.1 |
| 20260506043914 | 49 | 347 | 3.0 | 5.0 | 0.07 | 0.08 | 0.08 | 95 | 1009.2 |
| 20260506043412 | 49 | 328 | 5.0 | 7.0 | 0.05 | 0.07 | 0.07 | 95 | 1009.3 |
| 20260506042909 | 49 | 3 | 4.0 | 5.0 | 0.12 | 0.07 | 0.07 | 95 | 1009.3 |
| 20260506042409 | 49 | 16 | 1.0 | 3.0 | 0.12 | 0.06 | 0.06 | 95 | 1009.3 |
| 20260506041906 | 49 | 340 | 3.0 | 4.0 | 0.17 | 0.05 | 0.05 | 95 | 1009.3 |
| 20260506041403 | 49 | 11 | 4.0 | 5.0 | 0.19 | 0.04 | 0.04 | 95 | 1009.2 |
| 20260506040900 | 49 | 357 | 0.0 | 3.0 | 0.14 | 0.02 | 0.02 | 95 | 1009.3 |
| 20260506040358 | 49 | 7 | 5.0 | 7.0 | 0.12 | 0.00 | 0.00 | 95 | 1009.4 |
| 20260506035854 | 49 | 355 | 4.0 | 4.0 | 0.12 | 0.78 | 0.78 | 95 | 1009.2 |
| 20260506035351 | 49 | 340 | 5.0 | 7.0 | 0.05 | 0.76 | 0.76 | 95 | 1009.6 |
| 20260506034849 | 49 | 353 | 3.0 | 3.0 | 0.05 | 0.76 | 0.76 | 95 | 1009.5 |
| 20260506034346 | 49 | 30 | 5.0 | 7.0 | 0.07 | 0.75 | 0.75 | 94 | 1009.6 |
| 20260506033842 | 49 | 357 | 2.0 | 4.0 | 0.05 | 0.74 | 0.74 | 94 | 1009.7 |
| 20260506033339 | 49 | 16 | 4.0 | 8.0 | 0.12 | 0.74 | 0.74 | 94 | 1009.5 |
| 20260506032837 | 49 | 9 | 4.0 | 5.0 | 0.12 | 0.73 | 0.73 | 95 | 1009.7 |
| 20260506032333 | 50 | 41 | 1.0 | 3.0 | 0.12 | 0.72 | 0.72 | 95 | 1009.7 |
| 20260506031830 | 50 | 352 | 3.0 | 4.0 | 0.07 | 0.71 | 0.71 | 95 | 1009.8 |
| 20260506031327 | 50 | 38 | 4.0 | 7.0 | 0.12 | 0.70 | 0.70 | 95 | 1010.1 |
| 20260506030825 | 50 | 335 | 5.0 | 5.0 | 0.19 | 0.69 | 0.69 | 95 | 1010.2 |
| 20260506030323 | 50 | 331 | 5.0 | 4.0 | 0.19 | 0.68 | 0.68 | 95 | 1010.5 |
| 20260506025819 | 50 | 333 | 6.0 | 8.0 | 0.12 | 0.66 | 0.66 | 95 | 1010.0 |
| 20260506025316 | 50 | 337 | 1.0 | 3.0 | 0.12 | 0.65 | 0.65 | 95 | 1010.0 |
| 20260506024813 | 50 | 18 | 2.0 | 3.0 | 0.24 | 0.64 | 0.64 | 95 | 1010.0 |
| 20260506024310 | 50 | 354 | 0.0 | 1.0 | 0.35 | 0.63 | 0.63 | 95 | 1009.7 |
| 20260506023806 | 51 | 16 | 4.0 | 5.0 | 0.31 | 0.60 | 0.60 | 95 | 1009.6 |
| 20260506023303 | 51 | 332 | 0.0 | 1.0 | 0.31 | 0.57 | 0.57 | 95 | 1009.6 |
| 20260506022759 | 51 | 14 | 6.0 | 8.0 | 0.31 | 0.55 | 0.55 | 95 | 1009.3 |
| 20260506022257 | 51 | 5 | 0.0 | 3.0 | 0.17 | 0.52 | 0.52 | 95 | 1009.4 |
| 20260506021755 | 51 | 28 | 3.0 | 4.0 | 0.12 | 0.50 | 0.50 | 95 | 1009.3 |
| 20260506021252 | 51 | 0 | 3.0 | 4.0 | 0.12 | 0.49 | 0.49 | 95 | 1009.3 |
| 20260506020749 | 51 | 13 | 3.0 | 7.0 | 0.12 | 0.48 | 0.48 | 95 | 1009.3 |
| 20260506020247 | 51 | 30 | 5.0 | 8.0 | 0.19 | 0.47 | 0.47 | 95 | 1009.3 |
| 20260506015744 | 51 | 16 | 3.0 | 4.0 | 0.24 | 0.46 | 0.46 | 95 | 1009.3 |
| 20260506015241 | 51 | 24 | 3.0 | 7.0 | 0.12 | 0.44 | 0.44 | 95 | 1009.3 |
| 20260506014738 | 51 | 8 | 0.0 | 1.0 | 0.07 | 0.42 | 0.42 | 94 | 1009.3 |
| 20260506014235 | 51 | 7 | 4.0 | 4.0 | 0.07 | 0.42 | 0.42 | 94 | 1009.3 |
| 20260506013732 | 51 | 2 | 6.0 | 8.0 | 0.00 | 0.41 | 0.41 | 94 | 1009.2 |
| 20260506013229 | 51 | 28 | 7.0 | 8.0 | 0.00 | 0.41 | 0.41 | 94 | 1009.2 |
| 20260506012725 | 51 | 23 | 4.0 | 8.0 | 0.00 | 0.41 | 0.41 | 95 | 1009.1 |
| 20260506012222 | 52 | 14 | 3.0 | 5.0 | 0.00 | 0.41 | 0.41 | 95 | 1009.2 |
| 20260506011720 | 52 | 23 | 2.0 | 4.0 | 0.00 | 0.41 | 0.41 | 95 | 1009.1 |
| 20260506011215 | 52 | 8 | 4.0 | 5.0 | 0.05 | 0.41 | 0.41 | 95 | 1009.1 |
| 20260506010714 | 52 | 5 | 4.0 | 4.0 | 0.12 | 0.41 | 0.41 | 95 | 1009.1 |
| 20260506010211 | 52 | 349 | 4.0 | 4.0 | 0.12 | 0.40 | 0.40 | 94 | 1009.1 |
| 20260506005708 | 52 | 2 | 2.0 | 3.0 | 0.05 | 0.39 | 0.39 | 94 | 1009.0 |
| 20260506005205 | 52 | 9 | 2.0 | 4.0 | 0.00 | 0.38 | 0.38 | 94 | 1008.7 |
| 20260506004701 | 52 | 20 | 3.0 | 4.0 | 0.00 | 0.38 | 0.38 | 94 | 1008.9 |
| 20260506004159 | 53 | 355 | 3.0 | 4.0 | 0.00 | 0.38 | 0.38 | 94 | 1009.0 |
| 20260506003654 | 53 | 19 | 1.0 | 4.0 | 0.07 | 0.38 | 0.38 | 94 | 1008.8 |
| 20260506003151 | 53 | 36 | 2.0 | 1.0 | 0.07 | 0.38 | 0.38 | 94 | 1008.8 |
| 20260506002647 | 53 | 36 | 2.0 | 3.0 | 0.05 | 0.37 | 0.37 | 94 | 1008.9 |
| 20260506002143 | 53 | 42 | 1.0 | 3.0 | 0.12 | 0.37 | 0.37 | 94 | 1008.9 |
| 20260506001639 | 53 | 48 | 1.0 | 3.0 | 0.12 | 0.36 | 0.36 | 94 | 1008.9 |
| 20260506001137 | 53 | 30 | 2.0 | 1.0 | 0.12 | 0.35 | 0.35 | 94 | 1008.9 |
| 20260506000634 | 53 | 30 | 3.0 | 3.0 | 0.19 | 0.34 | 0.34 | 94 | 1008.9 |
| 20260506000131 | 53 | 21 | 2.0 | 3.0 | 0.24 | 0.33 | 0.33 | 93 | 1009.0 |
| 20260505235629 | 53 | 23 | 1.0 | 1.0 | 0.24 | 0.31 | 0.31 | 93 | 1009.1 |
| 20260505235125 | 53 | 23 | 0.0 | 3.0 | 0.31 | 0.29 | 0.29 | 92 | 1009.1 |
| 20260505234617 | 53 | 335 | 3.0 | 7.0 | 0.78 | 0.26 | 0.26 | 92 | 1009.4 |
| 20260505234114 | 54 | 298 | 3.0 | 8.0 | 1.21 | 0.23 | 0.23 | 90 | 1009.4 |
| 20260505233612 | 56 | 293 | 5.0 | 10.0 | 0.78 | 0.13 | 0.13 | 88 | 1009.6 |
| 20260505233109 | 59 | 314 | 8.0 | 10.0 | 0.12 | 0.02 | 0.02 | 88 | 1009.0 |
| 20260505232606 | 59 | 336 | 1.0 | 1.0 | 0.00 | 0.00 | 0.00 | 86 | 1008.5 |
| 20260505232104 | 59 | 280 | 3.0 | 3.0 | 0.00 | 0.00 | 0.00 | 85 | 1008.2 |
| 20260505231600 | 59 | 1 | 2.0 | 4.0 | 0.00 | 0.00 | 0.00 | 84 | 1008.2 |
| 20260505231059 | 59 | 351 | 2.0 | 3.0 | 0.00 | 0.00 | 0.00 | 84 | 1008.3 |
| 20260505230556 | 59 | 341 | 1.0 | 3.0 | 0.00 | 0.00 | 0.00 | 83 | 1008.2 |
| 20260505230052 | 60 | 327 | 3.0 | 7.0 | 0.00 | 0.00 | 0.00 | 83 | 1008.3 |
| 20260505225549 | 60 | 328 | 1.0 | 3.0 | 0.00 | 0.00 | 0.00 | 84 | 1008.3 |
| 20260505225045 | 60 | 7 | 2.0 | 3.0 | 0.00 | 0.00 | 0.00 | 83 | 1008.3 |
| 20260505224543 | 60 | 336 | 1.0 | 5.0 | 0.00 | 0.00 | 0.00 | 83 | 1008.2 |
| 20260505224040 | 60 | 341 | 1.0 | 4.0 | 0.00 | 0.00 | 0.00 | 82 | 1008.4 |
| 20260505223537 | 60 | 0 | 1.0 | 4.0 | 0.00 | 0.00 | 0.00 | 82 | 1008.5 |
| 20260505223033 | 60 | 333 | 4.0 | 5.0 | 0.00 | 0.00 | 0.00 | 82 | 1008.4 |
| 20260505222529 | 60 | 338 | 3.0 | 7.0 | 0.00 | 0.00 | 0.00 | 82 | 1008.5 |
| 20260505222026 | 60 | 4 | 3.0 | 4.0 | 0.00 | 0.00 | 0.00 | 81 | 1008.8 |
| 20260505221523 | 61 | 307 | 2.0 | 3.0 | 0.00 | 0.00 | 0.00 | 81 | 1008.6 |
| 20260505221019 | 61 | 347 | 1.0 | 3.0 | 0.00 | 0.00 | 0.00 | 81 | 1008.7 |
| 20260505220517 | 61 | 320 | 1.0 | 3.0 | 0.00 | 0.00 | 0.00 | 81 | 1008.9 |
| 20260505220015 | 61 | 354 | 3.0 | 4.0 | 0.00 | 0.00 | 0.00 | 80 | 1008.8 |
| 20260505215512 | 62 | 288 | 4.0 | 7.0 | 0.00 | 0.00 | 0.00 | 79 | 1008.5 |
| 20260505215010 | 62 | 298 | 3.0 | 4.0 | 0.00 | 0.00 | 0.00 | 77 | 1008.6 |
| 20260505214508 | 63 | 354 | 7.0 | 12.0 | 0.00 | 0.00 | 0.00 | 74 | 1008.7 |
| 20260505214004 | 63 | 354 | 3.0 | 4.0 | 0.00 | 0.00 | 0.00 | 73 | 1008.5 |
| 20260505213502 | 63 | 277 | 4.0 | 10.0 | 0.00 | 0.00 | 0.00 | 72 | 1008.6 |
| 20260505212958 | 63 | 264 | 2.0 | 4.0 | 0.00 | 0.00 | 0.00 | 73 | 1008.4 |
| 20260505212455 | 63 | 274 | 1.0 | 3.0 | 0.00 | 0.00 | 0.00 | 73 | 1008.4 |
| 20260505211952 | 63 | 273 | 3.0 | 5.0 | 0.00 | 0.00 | 0.00 | 72 | 1008.4 |
| 20260505211449 | 63 | 268 | 1.0 | 1.0 | 0.00 | 0.00 | 0.00 | 73 | 1008.5 |
| 20260505210945 | 63 | 290 | 3.0 | 4.0 | 0.00 | 0.00 | 0.00 | 72 | 1008.4 |
| 20260505210443 | 64 | 301 | 1.0 | 4.0 | 0.00 | 0.00 | 0.00 | 72 | 1008.4 |
| 20260505205939 | 64 | 207 | 2.0 | 4.0 | 0.00 | 0.00 | 0.00 | 71 | 1008.3 |
| 20260505205438 | 64 | 228 | 2.0 | 4.0 | 0.00 | 0.00 | 0.00 | 71 | 1008.3 |
| 20260505204934 | 64 | 264 | 4.0 | 5.0 | 0.00 | 0.00 | 0.00 | 70 | 1008.6 |
| 20260505204432 | 64 | 194 | 8.0 | 10.0 | 0.00 | 0.00 | 0.00 | 68 | 1008.4 |
| 20260505203929 | 65 | 255 | 8.0 | 10.0 | 0.00 | 0.00 | 0.00 | 67 | 1008.6 |
| 20260505203425 | 66 | 241 | 5.0 | 7.0 | 0.00 | 0.00 | 0.00 | 64 | 1008.4 |
| 20260505202922 | 66 | 266 | 4.0 | 8.0 | 0.00 | 0.00 | 0.00 | 62 | 1008.3 |
| 20260505202418 | 66 | 300 | 2.0 | 7.0 | 0.00 | 0.00 | 0.00 | 62 | 1008.4 |
| 20260505201915 | 66 | 242 | 3.0 | 3.0 | 0.00 | 0.00 | 0.00 | 63 | 1008.2 |
| 20260505201412 | 66 | 215 | 2.0 | 1.0 | 0.00 | 0.00 | 0.00 | 62 | 1008.1 |
| 20260505200910 | 66 | 215 | 4.0 | 7.0 | 0.00 | 0.00 | 0.00 | 60 | 1008.2 |
| 20260505200407 | 66 | 224 | 3.0 | 5.0 | 0.00 | 0.00 | 0.00 | 61 | 1008.4 |
| 20260505195902 | 66 | 212 | 3.0 | 5.0 | 0.00 | 0.00 | 0.00 | 61 | 1008.4 |
| 20260505195400 | 66 | 251 | 3.0 | 5.0 | 0.00 | 0.00 | 0.00 | 61 | 1008.3 |
| 20260505194857 | 67 | 247 | 6.0 | 11.0 | 0.00 | 0.00 | 0.00 | 60 | 1008.3 |
| 20260505194355 | 67 | 280 | 2.0 | 3.0 | 0.00 | 0.00 | 0.00 | 61 | 1008.5 |
| 20260505193854 | 67 | 202 | 3.0 | 4.0 | 0.00 | 0.00 | 0.00 | 60 | 1008.4 |
| 20260505193353 | 67 | 280 | 1.0 | 4.0 | 0.00 | 0.00 | 0.00 | 60 | 1008.4 |
| 20260505192850 | 66 | 355 | 2.0 | 10.0 | 0.00 | 0.00 | 0.00 | 62 | 1008.6 |
| 20260505192348 | 66 | 251 | 2.0 | 4.0 | 0.00 | 0.00 | 0.00 | 61 | 1008.5 |
| 20260505191845 | 66 | 274 | 3.0 | 7.0 | 0.00 | 0.00 | 0.00 | 61 | 1008.8 |
| 20260505191344 | 66 | 313 | 6.0 | 8.0 | 0.00 | 0.00 | 0.00 | 61 | 1008.8 |
| 20260505190840 | 66 | 233 | 6.0 | 5.0 | 0.00 | 0.00 | 0.00 | 60 | 1008.9 |
| 20260505190336 | 66 | 264 | 6.0 | 7.0 | 0.00 | 0.00 | 0.00 | 60 | 1008.9 |
| 20260505185831 | 66 | 293 | 7.0 | 8.0 | 0.00 | 0.00 | 0.00 | 60 | 1009.1 |
| 20260505185328 | 65 | 297 | 3.0 | 8.0 | 0.00 | 0.00 | 0.00 | 61 | 1009.1 |
| 20260505184824 | 65 | 273 | 4.0 | 10.0 | 0.00 | 0.00 | 0.00 | 62 | 1009.3 |
| 20260505184322 | 65 | 299 | 2.0 | 4.0 | 0.00 | 0.00 | 0.00 | 63 | 1009.4 |
| 20260505183819 | 65 | 255 | 3.0 | 4.0 | 0.00 | 0.00 | 0.00 | 61 | 1009.3 |
| 20260505183315 | 65 | 306 | 3.0 | 5.0 | 0.00 | 0.00 | 0.00 | 61 | 1009.2 |
| 20260505182812 | 65 | 297 | 3.0 | 8.0 | 0.00 | 0.00 | 0.00 | 61 | 1009.3 |
| 20260505182309 | 66 | 332 | 2.0 | 5.0 | 0.00 | 0.00 | 0.00 | 60 | 1008.9 |
| 20260505181806 | 66 | 266 | 3.0 | 4.0 | 0.00 | 0.00 | 0.00 | 60 | 1009.0 |
| 20260505181303 | 66 | 242 | 4.0 | 7.0 | 0.00 | 0.00 | 0.00 | 61 | 1008.9 |
| 20260505180759 | 66 | 313 | 3.0 | 5.0 | 0.00 | 0.00 | 0.00 | 59 | 1008.9 |
| 20260505180256 | 66 | 257 | 2.0 | 4.0 | 0.00 | 0.00 | 0.00 | 59 | 1008.7 |
| 20260505175752 | 67 | 284 | 3.0 | 7.0 | 0.00 | 0.00 | 0.00 | 58 | 1008.7 |
| 20260505175249 | 67 | 263 | 4.0 | 10.0 | 0.00 | 0.00 | 0.00 | 59 | 1008.8 |
| 20260505174745 | 67 | 324 | 7.0 | 8.0 | 0.00 | 0.00 | 0.00 | 58 | 1008.6 |
| 20260505174243 | 67 | 235 | 2.0 | 5.0 | 0.00 | 0.00 | 0.00 | 58 | 1008.6 |
| 20260505173739 | 67 | 261 | 4.0 | 7.0 | 0.00 | 0.00 | 0.00 | 59 | 1008.5 |
| 20260505173236 | 67 | 240 | 2.0 | 5.0 | 0.00 | 0.00 | 0.00 | 58 | 1008.4 |
| 20260505172732 | 67 | 263 | 7.0 | 10.0 | 0.00 | 0.00 | 0.00 | 57 | 1008.6 |
| 20260505172229 | 67 | 276 | 7.0 | 10.0 | 0.00 | 0.00 | 0.00 | 57 | 1008.3 |
| 20260505171729 | 67 | 242 | 4.0 | 15.0 | 0.00 | 0.00 | 0.00 | 57 | 1008.4 |
| 20260505171227 | 67 | 227 | 3.0 | 10.0 | 0.00 | 0.00 | 0.00 | 57 | 1008.7 |
| 20260505170723 | 68 | 254 | 10.0 | 12.0 | 0.00 | 0.00 | 0.00 | 56 | 1008.7 |
| 20260505170220 | 68 | 206 | 3.0 | 5.0 | 0.00 | 0.00 | 0.00 | 56 | 1008.7 |
| 20260505165716 | 68 | 264 | 3.0 | 14.0 | 0.00 | 0.00 | 0.00 | 55 | 1008.6 |
| 20260505165212 | 68 | 245 | 10.0 | 16.0 | 0.00 | 0.00 | 0.00 | 55 | 1008.5 |
| 20260505164707 | 68 | 240 | 5.0 | 10.0 | 0.00 | 0.00 | 0.00 | 55 | 1008.5 |
| 20260505164205 | 68 | 228 | 4.0 | 16.0 | 0.00 | 0.00 | 0.00 | 54 | 1008.4 |
| 20260505163703 | 68 | 261 | 2.0 | 10.0 | 0.00 | 0.00 | 0.00 | 54 | 1008.5 |
| 20260505163201 | 69 | 178 | 3.0 | 15.0 | 0.00 | 0.00 | 0.00 | 52 | 1008.6 |
| 20260505162658 | 70 | 234 | 5.0 | 11.0 | 0.00 | 0.00 | 0.00 | 52 | 1008.6 |
| 20260505162155 | 71 | 237 | 3.0 | 8.0 | 0.00 | 0.00 | 0.00 | 53 | 1008.5 |
| 20260505161652 | 69 | 218 | 5.0 | 14.0 | 0.00 | 0.00 | 0.00 | 53 | 1008.3 |
| 20260505161149 | 69 | 248 | 10.0 | 15.0 | 0.00 | 0.00 | 0.00 | 54 | 1008.2 |
| 20260505160647 | 70 | 250 | 7.0 | 16.0 | 0.00 | 0.00 | 0.00 | 52 | 1007.9 |
| 20260505160144 | 70 | 298 | 5.0 | 23.0 | 0.00 | 0.00 | 0.00 | 53 | 1007.9 |
| 20260505153124 | 68 | 269 | 6.0 | 16.0 | 0.00 | 0.00 | 0.00 | 56 | 1008.5 |
| 20260505152620 | 67 | 254 | 4.0 | 10.0 | 0.00 | 0.00 | 0.00 | 57 | 1008.4 |
| 20260505152116 | 67 | 256 | 7.0 | 12.0 | 0.00 | 0.00 | 0.00 | 57 | 1008.4 |
| 20260505151611 | 67 | 262 | 5.0 | 18.0 | 0.00 | 0.00 | 0.00 | 56 | 1008.2 |
| 20260505151109 | 67 | 318 | 5.0 | 16.0 | 0.00 | 0.00 | 0.00 | 57 | 1008.1 |
| 20260505150605 | 67 | 273 | 5.0 | 10.0 | 0.00 | 0.00 | 0.00 | 59 | 1008.4 |
| 20260505140531 | 65 | 237 | 10.0 | 11.0 | 0.00 | 0.00 | 0.00 | 61 | 1008.0 |
| 20260505124944 | 61 | 216 | 2.0 | 10.0 | 0.00 | 0.00 | 0.00 | 69 | 1007.6 |
| 20260505124441 | 61 | 176 | 5.0 | 7.0 | 0.00 | 0.00 | 0.00 | 69 | 1007.2 |
| 20260505123937 | 62 | 172 | 5.0 | 8.0 | 0.00 | 0.00 | 0.00 | 67 | 1007.6 |
| 20260505123433 | 62 | 207 | 4.0 | 8.0 | 0.00 | 0.00 | 0.00 | 66 | 1007.7 |
| 20260505122929 | 62 | 223 | 4.0 | 8.0 | 0.00 | 0.00 | 0.00 | 67 | 1007.2 |
| 20260505122427 | 62 | 266 | 8.0 | 10.0 | 0.00 | 0.00 | 0.00 | 66 | 1007.4 |
| 20260505121924 | 62 | 205 | 5.0 | 5.0 | 0.00 | 0.00 | 0.00 | 65 | 1007.5 |
| 20260505121421 | 62 | 192 | 2.0 | 7.0 | 0.00 | 0.00 | 0.00 | 65 | 1007.5 |
| 20260505120916 | 62 | 261 | 5.0 | 11.0 | 0.00 | 0.00 | 0.00 | 65 | 1007.7 |
| 20260505120413 | 62 | 210 | 3.0 | 7.0 | 0.00 | 0.00 | 0.00 | 65 | 1007.6 |
| 20260505115912 | 62 | 209 | 3.0 | 11.0 | 0.00 | 0.00 | 0.00 | 64 | 1007.9 |
| 20260505115409 | 63 | 223 | 3.0 | 11.0 | 0.00 | 0.00 | 0.00 | 63 | 1007.7 |
| 20260505114907 | 63 | 181 | 5.0 | 11.0 | 0.00 | 0.00 | 0.00 | 63 | 1007.5 |
| 20260505114403 | 63 | 171 | 3.0 | 7.0 | 0.00 | 0.00 | 0.00 | 64 | 1007.5 |
| 20260505113859 | 63 | 126 | 4.0 | 7.0 | 0.00 | 0.00 | 0.00 | 63 | 1007.5 |
| 20260505113356 | 63 | 227 | 3.0 | 8.0 | 0.00 | 0.00 | 0.00 | 63 | 1007.6 |
| 20260505112852 | 63 | 241 | 5.0 | 8.0 | 0.00 | 0.00 | 0.00 | 62 | 1007.5 |
| 20260505112350 | 63 | 285 | 5.0 | 11.0 | 0.00 | 0.00 | 0.00 | 62 | 1007.4 |
| 20260505111845 | 63 | 228 | 4.0 | 10.0 | 0.00 | 0.00 | 0.00 | 62 | 1007.1 |
| 20260505111340 | 63 | 223 | 9.0 | 11.0 | 0.00 | 0.00 | 0.00 | 62 | 1007.1 |
| 20260505110837 | 63 | 227 | 5.0 | 7.0 | 0.00 | 0.00 | 0.00 | 62 | 1006.9 |
| 20260505110334 | 63 | 273 | 10.0 | 14.0 | 0.00 | 0.00 | 0.00 | 62 | 1007.0 |
| 20260505101809 | 63 | 220 | 8.0 | 11.0 | 0.00 | 0.00 | 0.00 | 61 | 1006.7 |
| 20260505101304 | 64 | 215 | 5.0 | 8.0 | 0.00 | 0.00 | 0.00 | 60 | 1006.5 |
| 20260505100801 | 63 | 154 | 6.0 | 8.0 | 0.00 | 0.00 | 0.00 | 60 | 1006.5 |
| 20260505100257 | 63 | 185 | 6.0 | 16.0 | 0.00 | 0.00 | 0.00 | 60 | 1006.4 |
| 20260505095753 | 63 | 153 | 3.0 | 7.0 | 0.00 | 0.00 | 0.00 | 61 | 1006.5 |
| 20260505095251 | 64 | 260 | 3.0 | 11.0 | 0.00 | 0.00 | 0.00 | 60 | 1006.4 |
| 20260505094746 | 64 | 208 | 7.0 | 11.0 | 0.00 | 0.00 | 0.00 | 60 | 1006.3 |
| 20260505094243 | 64 | 173 | 3.0 | 5.0 | 0.00 | 0.00 | 0.00 | 60 | 1006.3 |
| 20260505093739 | 64 | 225 | 3.0 | 10.0 | 0.00 | 0.00 | 0.00 | 59 | 1006.0 |
| 20260505093237 | 64 | 277 | 7.0 | 11.0 | 0.00 | 0.00 | 0.00 | 59 | 1006.3 |
| 20260505092734 | 64 | 123 | 5.0 | 12.0 | 0.00 | 0.00 | 0.00 | 59 | 1006.1 |
| 20260505092232 | 64 | 218 | 11.0 | 16.0 | 0.00 | 0.00 | 0.00 | 59 | 1006.0 |
| 20260505091729 | 64 | 223 | 5.0 | 12.0 | 0.00 | 0.00 | 0.00 | 59 | 1006.1 |
| 20260505091228 | 64 | 243 | 7.0 | 11.0 | 0.00 | 0.00 | 0.00 | 59 | 1006.1 |
| 20260505090725 | 64 | 238 | 3.0 | 5.0 | 0.00 | 0.00 | 0.00 | 60 | 1005.9 |
| 20260505090223 | 64 | 274 | 3.0 | 8.0 | 0.00 | 0.00 | 0.00 | 58 | 1006.0 |
| 20260505085720 | 64 | 251 | 9.0 | 16.0 | 0.00 | 0.00 | 0.00 | 58 | 1006.0 |
| 20260505085218 | 64 | 222 | 4.0 | 12.0 | 0.00 | 0.00 | 0.00 | 59 | 1005.9 |
| 20260505084715 | 64 | 218 | 4.0 | 8.0 | 0.00 | 0.00 | 0.00 | 59 | 1005.9 |
| 20260505084214 | 64 | 229 | 7.0 | 11.0 | 0.00 | 0.00 | 0.00 | 59 | 1005.8 |
| 20260505083710 | 65 | 213 | 3.0 | 7.0 | 0.00 | 0.00 | 0.00 | 58 | 1005.8 |
| 20260505083207 | 65 | 224 | 6.0 | 10.0 | 0.00 | 0.00 | 0.00 | 58 | 1005.8 |
| 20260505082703 | 65 | 213 | 4.0 | 10.0 | 0.00 | 0.00 | 0.00 | 59 | 1005.7 |
| 20260505082201 | 64 | 228 | 10.0 | 15.0 | 0.00 | 0.00 | 0.00 | 59 | 1005.8 |
| 20260505081656 | 64 | 235 | 6.0 | 12.0 | 0.00 | 0.00 | 0.00 | 59 | 1005.7 |
| 20260505081154 | 64 | 231 | 3.0 | 14.0 | 0.00 | 0.00 | 0.00 | 60 | 1005.7 |
| 20260505080651 | 64 | 206 | 6.0 | 7.0 | 0.00 | 0.00 | 0.00 | 59 | 1005.5 |
| 20260505080146 | 64 | 178 | 3.0 | 11.0 | 0.00 | 0.00 | 0.00 | 59 | 1005.4 |
| 20260505075642 | 64 | 187 | 3.0 | 7.0 | 0.00 | 0.00 | 0.00 | 59 | 1005.3 |
| 20260505075139 | 64 | 211 | 9.0 | 15.0 | 0.00 | 0.00 | 0.00 | 59 | 1005.4 |
| 20260505074636 | 64 | 231 | 8.0 | 10.0 | 0.00 | 0.00 | 0.00 | 60 | 1005.4 |
| 20260505074133 | 64 | 209 | 5.0 | 11.0 | 0.00 | 0.00 | 0.00 | 60 | 1005.2 |
| 20260505073631 | 64 | 183 | 4.0 | 7.0 | 0.00 | 0.00 | 0.00 | 60 | 1005.2 |
| 20260505073129 | 64 | 177 | 3.0 | 11.0 | 0.00 | 0.00 | 0.00 | 59 | 1005.2 |
| 20260505072624 | 64 | 250 | 5.0 | 10.0 | 0.00 | 0.00 | 0.00 | 59 | 1005.2 |
| 20260505072121 | 64 | 241 | 7.0 | 10.0 | 0.00 | 0.00 | 0.00 | 59 | 1005.2 |
| 20260505071617 | 64 | 230 | 4.0 | 11.0 | 0.00 | 0.00 | 0.00 | 59 | 1005.2 |
| 20260505071115 | 64 | 180 | 3.0 | 11.0 | 0.00 | 0.00 | 0.00 | 59 | 1005.1 |
| 20260505070612 | 64 | 192 | 4.0 | 5.0 | 0.00 | 0.00 | 0.00 | 59 | 1005.2 |
| 20260505070108 | 64 | 209 | 5.0 | 10.0 | 0.00 | 0.00 | 0.00 | 59 | 1005.2 |
| 20260505065604 | 65 | 261 | 5.0 | 15.0 | 0.00 | 0.00 | 0.00 | 58 | 1005.2 |
| 20260505065101 | 64 | 216 | 7.0 | 8.0 | 0.00 | 0.00 | 0.00 | 59 | 1005.3 |
| 20260505064558 | 65 | 236 | 10.0 | 11.0 | 0.00 | 0.00 | 0.00 | 59 | 1005.3 |
| 20260505064056 | 65 | 211 | 4.0 | 12.0 | 0.00 | 0.00 | 0.00 | 58 | 1005.3 |
| 20260505063553 | 65 | 244 | 11.0 | 14.0 | 0.00 | 0.00 | 0.00 | 58 | 1005.5 |
| 20260505063049 | 65 | 218 | 3.0 | 8.0 | 0.00 | 0.00 | 0.00 | 59 | 1005.5 |
| 20260505062545 | 65 | 240 | 7.0 | 11.0 | 0.00 | 0.00 | 0.00 | 59 | 1005.4 |
| 20260505062043 | 65 | 197 | 4.0 | 7.0 | 0.00 | 0.00 | 0.00 | 58 | 1005.7 |
| 20260505061540 | 65 | 198 | 3.0 | 5.0 | 0.00 | 0.00 | 0.00 | 58 | 1005.6 |
| 20260505061038 | 65 | 245 | 5.0 | 11.0 | 0.00 | 0.00 | 0.00 | 58 | 1005.6 |
| 20260505060535 | 65 | 205 | 5.0 | 11.0 | 0.00 | 0.00 | 0.00 | 57 | 1005.6 |
| 20260505060032 | 65 | 216 | 3.0 | 5.0 | 0.00 | 0.00 | 0.00 | 58 | 1005.7 |
| 20260505055527 | 65 | 207 | 5.0 | 8.0 | 0.00 | 0.00 | 0.00 | 58 | 1005.9 |
| 20260505055024 | 65 | 210 | 4.0 | 10.0 | 0.00 | 0.00 | 0.00 | 58 | 1005.9 |